[Date Prev][Date Next][Thread Prev][Thread Next] - [Date Index][Thread Index][Author Index]
2 Line ISS Keps 3-25
- Subject: [sarex] 2 Line ISS Keps 3-25
- From: "Dave Larsen PhD" <doc@xxxxxxxxxxx>
- Date: Mon, 25 Mar 2002 02:25:38 -0800
ISS
1 25544U 98067A 02084.18991507 .00053184 00000-0 68030-3 0 2268
2 25544 51.6370 114.9922 0003826 319.3583 119.6582 15.58678062190935
----
Via the sarex mailing list at AMSAT.ORG courtesy of AMSAT-NA.
To unsubscribe, send "unsubscribe sarex" to Majordomo@amsat.org
AMSAT Home